Regional Weather Roundup
Issued by NWS

Home | Current Version | Previous Version | Text Only | Print | Product List | Glossary On
Versions: 1 2 3 4 5 6 7 8 9 10 11 12 13 14 15 16 17 18 19 20 21 22 23 24 25 26 27 28 29 30 31 32 33 34 35 36 37 38 39 40 41 42 43 44 45 46 47 48 49 50
164
ASUS44 KLIX 210401
RWRLA
LOUISIANA WEATHER ROUNDUP
NATIONAL WEATHER SERVICE NEW ORLEANS LA
1100 PM CDT MON OCT 20 2014

NOTE: "FAIR" INDICATES FEW OR NO CLOUDS BELOW 12,000 FEET WITH NO
      SIGNIFICANT WEATHER AND/OR OBSTRUCTIONS TO VISIBILITY.
      SKY/WX - SKY CONDITION AND SIGNIFICANT WEATHER.
      TMP - AIR TEMPERATURE.    DP   - DEWPOINT TEMPERATURE.
      RH  - RELATIVE HUMIDITY.  PRES - PRESSURE.
      HX  - HEAT INDEX.         WCI  - WIND CHILL INDEX.

*  THESE STATIONS ARE NOT NWS OR FAA STATIONS AND ARE NOT UNDER
   NWS QUALITY CONTROL.

LAZ040-048-061>063-065-066-069-210500-
SOUTHEAST LOUISIANA

CITY           SKY/WX    TMP DP  RH WIND       PRES   REMARKS
N.O. AUDUBON   NOT AVBL
N.O. INTL ARPT PTCLDY    66  55  67 CALM      30.02S
N.O. LAKEFRONT CLEAR     73  55  53 NE12      30.02F
N.O. DOWNTOWN* FAIR      72  54  53 NE3       30.03S
SLIDELL        CLEAR     55  52  89 CALM      30.02S
BATON ROUGE    CLEAR     57  54  89 CALM      30.04R
BOOTHVILLE     CLEAR     70  64  81 CALM      30.01S
BELLE CHASSE   PTCLDY    58  54  86 CALM      30.01F
BOGALUSA*        N/A     53  50  87 CALM      30.05S
NEW ROADS*     FAIR      61  55  81 N3        30.04S
GONZALES*      FAIR      57  57 100 CALM      30.02F
HAMMOND*       NOT AVBL
HOUMA*         CLEAR     60  57  89 CALM      30.02S
PORT FOURCHON* CLEAR     72  63  73 NE7       30.04S

$$

LAZ041-044-053-054-210500-
SOUTHWEST LOUISIANA

CITY           SKY/WX    TMP DP  RH WIND       PRES   REMARKS
LAKE CHARLES   CLEAR     62  56  80 NE6       30.03S
LAFAYETTE      CLEAR     61  56  83 CALM      30.03S
PATTERSON      NOT AVBL
SALT POINT       N/A     64  60  87 CALM      30.02R
NEW IBERIA     CLEAR     63  56  78 N6        30.03S
CHENAULT AIRPK CLEAR     61  57  86 CALM      30.03F

$$

LAZ027-028-210500-
CENTRAL LOUISIANA

CITY           SKY/WX    TMP DP  RH WIND       PRES   REMARKS
FORT POLK      CLEAR     56  54  92 NE5       30.04F
ALEXANDRIA INT CLEAR     57  56  96 CALM      30.04R
ALEXANDRIA     CLEAR     56  54  93 CALM      30.06R

$$

LAZ001-002-210500-
NORTHWEST LOUISIANA

CITY           SKY/WX    TMP DP  RH WIND       PRES   REMARKS
SHREVEPORT     CLEAR     61  55  81 CALM      30.05S
BARKSDALE AFB  CLEAR     59  56  91 E1        30.06S
DTN SHREVEPORT CLEAR     60  55  83 CALM      30.06S

$$

LAZ014-016-210500-
NORTHEAST LOUISIANA

CITY           SKY/WX    TMP DP  RH WIND       PRES   REMARKS
MONROE         CLEAR     57  54  89 CALM      30.06F
TALLULAH       CLEAR     51  50  96 CALM      30.05F

$$




USA.gov is the U.S. government's official web portal to all federal, state and local government web resources and services.